Location: Sor�
(55.4387°N, 11.5609°E)
Time: 17:13:18
(UTC+00:00)

Daily predictions for brighter satellites

Satellite Brightness Start Highest point End
(mag) Time Altitude Azimuth Time Altitude Azimuth Time Altitude Azimuth
Cosmos 1315 Rocket 2.9 20:45:16 10° NNW 20:49:22 85° ENE 20:53:29 10° SSE
Cosmos 2333 Rocket 2.6 20:44:20 10° S 20:49:42 44° ESE 20:55:07 10° NE
ATLAS 2AS CENTAUR R/B 3.1 20:42:26 10° NW 20:50:17 76° NE 20:57:29 10° ESE
Cosmos-2242 4.1 20:48:36 10° NNW 20:52:43 43° W 20:56:50 10° SSW
Resurs 01 Rocket 4.0 20:50:55 10° SW 20:54:09 20° W 20:57:25 10° NW
Cosmos 1818 3.6 20:51:29 10° SW 20:56:54 76° SE 21:02:23 10° NE
Cosmos 2221 2.8 20:53:26 10° N 20:57:48 61° ENE 21:02:08 10° SSE
Cosmos 773 Rocket 4.1 20:54:27 10° SSW 20:59:43 68° ESE 21:04:59 10° NNE
SL-16 R/B 3.4 20:55:22 10° WSW 21:00:51 48° NW 21:06:23 10° NNE
GEOS 3 Rocket 3.7 20:56:07 10° NE 21:01:30 64° SE 21:06:51 10° SW
ERS-1 Rocket 3.5 20:58:17 10° S 21:03:14 56° WSW 21:08:14 10° NNW
USA 215 3.6 20:58:44 10° ENE 21:04:53 41° SE 21:11:00 10° SSW
Cosmos 2278 Rocket 2.3 21:01:32 10° NW 21:07:15 90° WSW 21:12:56 10° SSE
Cosmos 1892 3.8 21:07:12 10° SSE 21:10:28 28° E 21:13:47 10° NNE
Cosmos 1844 Rocket 4.3 21:07:00 10° NW 21:11:32 26° WSW 21:16:02 10° SSW
ATLAS 5 CENTAUR R/B 1.6 21:09:09 10° SW 21:13:25 78° SE 21:18:23 10° NE
Aureole 2 Rocket 4.0 21:11:39 10° N 21:13:49 20° NE 21:16:02 10° ESE
Meteor 1-11 4.3 21:08:40 10° SSW 21:14:20 85° WNW 21:20:05 10° NNE
Cosmos 1943 Rocket 3.8 21:10:03 10° NNW 21:15:05 31° NE 21:20:06 10° E
SPOT 5 3.7 21:15:11 10° S 21:20:00 47° W 21:24:37 10° NNW
Lacrosse 5 rocket 1.7 21:16:56 10° W 21:21:08 69° N 21:25:05 10° E
Cosmos 2056 Rocket 4.1 21:16:42 10° NNW 21:22:03 56° NE 21:27:23 10° SE
SL-16 R/B 4.1 21:20:04 10° ESE 21:22:30 13° E 21:24:57 10° ENE
Nadezhda 3 Rocket 4.2 21:16:33 10° N 21:22:56 66° ENE 21:29:11 10° SSE
Spot 4 4.3 21:20:06 10° SE 21:24:44 52° ENE 21:29:23 10° N
USA 81 4.4 21:21:55 10° SSW 21:27:11 70° W 21:32:29 10° N
Cosmos 2058 3.4 21:25:00 10° SSE 21:28:54 44° E 21:32:53 10° NNE
Cosmos 2154 Rocket 4.4 21:23:14 10° SSE 21:29:08 49° E 21:35:07 10° NNE
Cosmos 1408 3.7 21:29:06 12° SSE 21:31:56 29° E 21:35:03 10° NNE
TSX-5 4.1 21:30:49 10° NW 21:34:06 49° WSW 21:37:35 12° SSE
In-Cosmos 22 Rocket 4.3 21:30:11 10° S 21:35:22 58° E 21:40:37 10° NNE
Cosmos 2074 Rocket 4.0 21:30:11 10° S 21:36:25 79° E 21:42:39 10° NNE
Cosmos 1076 Rocket 3.8 21:36:08 11° S 21:40:07 51° E 21:44:17 10° NNE
USA 267 3.6 21:34:12 10° SE 21:40:34 50° SW 21:46:56 10° WNW
Cosmos 1680 Rocket 4.2 21:35:42 10° S 21:40:37 39° ESE 21:45:33 10° NE
CZ-4C R/B 3.6 21:37:29 10° NW 21:43:46 52° NNE 21:51:15 10° E
Cosmos 1842 Rocket 4.4 21:40:22 10° NNW 21:44:32 45° W 21:48:40 10° SSW
JB-3 4.2 21:42:00 10° NNE 21:45:53 85° ESE 21:49:43 10° SSW
COSMOS 2455 3.6 21:41:31 10° NW 21:47:28 53° NE 21:53:23 10° ESE
Cosmos 2322 Rocket 4.2 21:43:24 10° W 21:48:27 33° NW 21:53:32 10° NNE
MTI 3.8 21:46:49 10° NNE 21:49:55 77° WNW 21:53:00 10° SSW
Cosmos 2151 4.0 21:47:18 13° SSE 21:50:39 32° E 21:54:28 10° NNE
ATLAS CENTAUR R/B 3.3 21:53:34 10° W 21:55:47 15° WSW 21:58:00 10° SSW
Cosmos 923 Rocket 4.1 21:52:51 10° SSW 21:58:02 64° ESE 22:03:18 10° NNE
Cosmos 2327 Rocket 4.5 21:52:24 10° S 21:58:36 80° E 22:04:44 10° NNE
Cosmos 1933 4.4 21:55:13 10° N 21:58:57 35° ENE 22:02:24 12° SE
Cosmos 1151 Rocket 3.9 21:55:21 10° N 21:59:29 40° ENE 22:03:13 12° SE
Cosmos 2369 Rocket 3.4 21:54:23 10° NNW 21:59:38 38° NE 22:04:50 10° ESE
Cosmos 1825 2.8 21:58:08 15° SSE 22:01:01 41° E 22:04:37 10° NNE
ALOS 2 3.0 21:58:03 13° SE 22:01:55 56° ENE 22:06:14 10° N
APEX 3.8 21:59:49 10° NNW 22:02:25 33° NE 22:04:58 10° ESE
Cosmos 1980 3.9 21:57:23 10° SSW 22:02:53 56° ESE 22:08:24 10° NE
Cosmos 371 Rocket 3.7 22:02:20 10° NNW 22:07:11 60° ENE 22:11:47 11° SE
COSMOS 2428 2.9 22:02:09 10° SW 22:07:50 76° NW 22:13:33 10° NNE
GP-B 3.9 22:03:39 10° NNE 22:07:52 41° E 22:11:23 14° SSE
Cosmos 1295 Rocket 4.5 22:06:31 12° S 22:12:18 75° E 22:18:24 10° NNE
Cosmos 1624 Rocket 4.1 22:07:19 10° NNW 22:12:34 71° WSW 22:16:57 15° SSE
NOSS 3-4 (A) 4.1 22:06:37 10° NW 22:13:15 53° SW 22:19:46 13° SSE
NOSS 3-4 (C) 4.1 22:06:44 10° NW 22:13:22 54° SW 22:19:54 13° SSE
NOSS 0 Rocket 3.9 22:09:09 10° SSW 22:15:16 74° ESE 22:21:28 10° NE
Terra 3.7 22:11:58 10° SW 22:15:43 23° W 22:19:29 10° NW
Cosmos 1782 4.3 22:16:36 10° N 22:20:03 28° ENE 22:23:29 10° SE
SL-4 R/B 1.9 22:19:54 16° ESE 22:21:03 27° ENE 22:22:55 10° N
Cosmos 2237 Rocket 2.2 22:15:29 10° SSW 22:21:09 68° ESE 22:26:50 10° NE
Genesis I 3.8 22:18:36 14° S 22:21:34 37° SE 22:25:12 10° ENE
Cosmos 2219 Rocket 2.8 22:18:14 10° SW 22:23:45 58° NW 22:29:19 10° NNE
Cosmos 2344 3.9 22:16:47 10° SSW 22:23:50 48° ESE 22:31:41 10° NE
Cosmos 2360 Rocket 4.1 22:21:17 10° W 22:26:21 32° NW 22:31:26 10° NNE
NOSS 3-3 (A) 4.1 22:20:21 10° SW 22:26:27 86° NW 22:33:29 10° NE
NOSS 3-3 (C) 4.1 22:20:27 10° SW 22:26:34 87° NW 22:33:37 10° NE
Thor Agena Rocket 3.5 22:23:17 10° NNE 22:28:28 88° ESE 22:33:18 11° SSW
Cosmos 2333 Rocket 3.2 22:28:26 10° WSW 22:33:58 50° NW 22:39:36 10° NNE
RESURS DK-1 3.7 22:34:10 10° NNW 22:38:04 38° NE 22:41:57 10° ESE
Cosmos 1515 Rocket 4.0 22:35:26 10° N 22:39:44 56° ENE 22:43:15 15° SSE
BREEZE-M DEB (TANK) 3.0 22:38:23 10° WSW 22:40:56 18° SSW 22:41:22 18° SSW
ATLAS 2AS CENTAUR R/B 3.4 22:33:53 10° NW 22:40:56 43° WSW 22:46:24 15° S
EO 1 Del DPAF 3.4 22:37:54 10° NNE 22:41:41 70° WNW 22:44:59 13° SSW
Cosmos 1892 4.1 22:42:38 10° SW 22:46:06 33° WNW 22:49:36 10° N
Cosmos 1328 Rocket 3.5 22:42:49 10° NNW 22:47:10 83° W 22:50:25 17° S
Aureole 2 Rocket 2.9 22:44:55 10° NW 22:47:29 33° WSW 22:48:59 20° SSW
Cosmos 1766 Rocket 3.6 22:44:24 17° S 22:47:47 72° E 22:52:12 10° NNE
USA 215 3.2 22:41:51 10° ENE 22:48:27 82° SSE 22:55:03 10° WSW
Cosmos 1606 3.0 22:45:41 10° NNW 22:49:31 61° W 22:52:19 18° S
Okean 3 Rocket 3.6 22:47:02 16° S 22:50:36 86° ESE 22:55:04 10° NNE
Cosmos 2278 Rocket 3.9 22:46:30 10° NW 22:50:39 21° WSW 22:54:46 10° SSW
Cosmos 2297 4.0 22:47:07 10° NW 22:52:43 55° WSW 22:57:11 16° S
Cosmos 304 Rocket 4.0 22:48:48 10° NNW 22:53:40 73° ENE 22:58:04 12° SE
Cosmos 2112 Rocket 4.2 22:48:46 10° SSW 22:54:08 78° WNW 22:59:33 10° NNE
Cosmos 2228 Rocket 3.9 22:50:54 10° N 22:55:23 48° ENE 22:59:19 13° SE
Cosmos 2218 Rocket 4.1 22:50:54 15° S 22:56:15 73° E 23:02:31 10° NNE
Cosmos 1420 Rocket 4.3 22:51:19 10° NNW 22:56:30 59° WSW 23:00:36 16° S
Cosmos 158 Rocket 4.1 22:53:26 10° SW 22:58:18 68° WNW 23:03:15 10° NNE
ATLAS 5 CENTAUR R/B 3.3 22:54:10 10° W 22:58:29 40° NNW 23:03:28 10° NE
Cosmos 1943 Rocket 2.2 22:53:47 10° NW 22:59:31 85° WSW 23:04:40 13° SSE
Lacrosse 5 rocket 1.1 22:56:19 10° WNW 23:00:24 77° SSW 23:04:14 10° ESE
Cosmos 2366 rocket 4.1 22:56:35 15° S 23:01:55 76° E 23:08:17 10° NNE
Cosmos 1633 3.5 23:01:11 17° SSE 23:03:31 37° E 23:06:54 10° NNE
SL-16 R/B 2.4 23:00:46 15° SSW 23:05:29 60° ESE 23:11:05 10° NE
Cosmos 1408 4.1 23:03:45 10° SW 23:06:55 29° WNW 23:10:07 10° N
Cosmos 1959 Rocket 4.5 23:06:20 15° S 23:11:31 87° E 23:17:47 10° NNE
YAOGAN 11 4.1 23:09:09 17° SSE 23:12:30 81° WSW 23:16:59 10° NNW
Cosmos 1743 Rocket 4.1 23:12:36 17° SSE 23:15:43 47° E 23:19:55 10° NNE
Cosmos 2341 Rocket 4.4 23:11:47 11° SSW 23:17:41 60° WNW 23:23:51 10° N
Cosmos 332 Rocket 4.0 23:13:12 10° NW 23:17:55 56° WSW 23:21:28 17° S
Cosmos 1331 Rocket 4.3 23:12:50 10° NNW 23:18:09 69° ENE 23:23:27 10° SE
Cosmos 1680 Rocket 4.5 23:17:34 10° SW 23:22:43 47° NW 23:27:52 10° NNE
Meteor 2-3 Rocket 3.8 23:21:02 16° S 23:25:41 86° ESE 23:31:27 10° NNE
Cosmos 405 3.0 23:23:13 10° NNW 23:26:46 70° W 23:29:08 20° S
Helios 1A 3.5 23:24:53 18° S 23:27:48 48° W 23:31:53 10° NNW
Cosmos 2151 4.2 23:23:55 10° SW 23:27:54 36° WNW 23:31:53 10° N
Meteor 1-10 Rocket 4.4 23:25:05 10° NNW 23:30:41 69° ENE 23:35:50 12° SSE
Cosmos 1452 Rocket 4.0 23:26:12 10° NW 23:31:14 47° WSW 23:35:06 16° S
CZ-4C R/B 2.9 23:26:03 10° NW 23:32:54 80° SW 23:40:58 10° SE
Meteor 2-6 Rocket 4.2 23:27:36 10° NNW 23:33:10 82° ENE 23:37:54 14° SSE
Cosmos 389 Rocket 4.1 23:30:18 10° N 23:33:27 29° ENE 23:36:33 10° SE
PSLV R/B 4.0 23:29:22 10° NNE 23:33:29 49° E 23:36:34 17° S
COSMOS 2455 3.2 23:27:39 10° NW 23:33:29 51° WSW 23:38:24 14° SSE
Cosmos 1110 Rocket 4.0 23:30:01 10° NNW 23:35:19 87° WSW 23:40:16 12° SSE
SL-8 Rocket 4.4 23:30:59 12° SSW 23:36:38 58° WNW 23:42:44 10° N
Cosmos 1825 4.1 23:33:34 10° WSW 23:36:41 24° WNW 23:39:50 10° N
Cosmos 1151 Rocket 4.3 23:33:09 10° NNW 23:36:56 29° W 23:40:03 13° SW
Cosmos 1340 3.0 23:34:23 16° SSW 23:37:14 61° WNW 23:41:00 10° N
ALOS 2 4.2 23:35:27 12° SW 23:38:34 23° W 23:42:08 10° NW
Cosmos 1408 Rocket 3.8 23:35:56 16° SSW 23:39:26 63° WNW 23:43:51 10° N
SL-16 R/B 3.6 23:34:00 10° SE 23:39:52 45° ENE 23:45:46 10° N
Cosmos 1727 Rocket 4.3 23:36:54 10° NNW 23:42:58 56° W 23:48:04 15° SSW
Resurs 1-4 Rocket 4.0 23:39:42 10° NE 23:43:34 20° E 23:47:24 10° SE
APEX 4.2 23:41:41 10° WNW 23:43:38 18° WSW 23:44:22 16° SW
Cosmos 2369 Rocket 2.3 23:38:27 10° NW 23:43:59 61° WSW 23:48:49 14° SSE
GP-B 4.5 23:41:12 10° NNW 23:45:05 30° WNW 23:48:50 11° SW
SeaSat 1 4.2 23:44:07 10° ENE 23:47:42 20° ESE 23:51:17 10° SSE
Cosmos 44 3.0 23:43:37 11° SW 23:47:52 88° SE 23:52:24 10° NE
Cosmos 1500 Rocket 3.6 23:44:49 17° S 23:48:11 87° E 23:52:36 10° NNE
Helios 1B rocket 2.7 23:48:11 10° NNE 23:52:18 61° ESE 23:55:23 17° S
